MELBOURNE AIRPORT, Australia

1:48 PM AEDT on February 26, 2017 (GMT +1100)
MELBOURNE AIRPORT

Weather History for 94866 - October, 2012

Change the Weather History Date:

Tuesday, October 30, 2012

  Actual Average Record
Temperature  
Mean Temperature 70 °F -  
Max Temperature 88 °F 68 °F - ()
Min Temperature 51 °F 48 °F - ()
Cooling Degree Days 4    
Growing Degree Days 20 (Base 50)    
Moisture  
Dew Point 40 °F    
Average Humidity 38    
Maximum Humidity 88    
Minimum Humidity 5    
Precipitation  
Precipitation 0.00 in 0.08 in - ()
Sea Level Pressure  
Sea Level Pressure 29.92 in    
Wind  
Wind Speed 12 mph ()    
Max Wind Speed 23 mph    
Max Gust Speed 20 mph    
Visibility 16.8 miles    
Events      
T = Trace of Precipitation, MM = Missing Value Source: Averaged Metar Reports

Daily Weather History Graph

Daily Weather History Graph

Search for Another Location

Airport or City:

Trip Planner

Search our weather history database for the weather conditions in past years. The results will help you decide how hot, cold, wet, or windy it might be!

Date:

Astronomy

Oct. 30, 2012 Rise Set
Actual Time 6:16 AM AEDT 7:52 PM AEDT
Civil Twilight 5:48 AM AEDT 8:20 PM AEDT
Nautical Twilight 5:14 AM AEDT 8:54 PM AEDT
Astronomical Twilight 4:39 AM AEDT 9:30 PM AEDT
Moon 8:22 PM AEDT (10/30) 6:11 AM AEDT (10/30)
Length of Visible Light 14h 32m
Length of Day
13h 36m
Full, 100% of the Moon is Illuminated
Oct 30
Full
Nov 7
Last Quarter
Nov 14
New
Nov 21
First Quarter
Nov 29
Full

Hourly Weather History & Observations

Time (AEDT) Temp. Dew Point Humidity Pressure Visibility Wind Dir Wind Speed Gust Speed Precip Events Conditions
12:00 AM 57 °F 50 °F 71% 30.00 in 12 mi NW 6.9 mph - -   Haze
12:00 AM 57.2 °F 50.0 °F 77% 29.98 in - NW 6.9 mph - N/A   Clear
12:30 AM 53.6 °F 50.0 °F 88% 29.98 in - North 6.9 mph - N/A   Clear
1:00 AM 55.4 °F 50.0 °F 82% 29.98 in - North 5.8 mph - N/A   Clear
1:30 AM 53.6 °F 50.0 °F 88% 29.98 in - North 9.2 mph - N/A   Clear
2:00 AM 54 °F 49 °F 79% 29.97 in - North 11.5 mph - -  
2:00 AM 53.6 °F 50.0 °F 88% 29.98 in - North 11.5 mph - N/A   Clear
2:30 AM 53.6 °F 48.2 °F 82% 29.95 in - North 12.7 mph - N/A   Clear
3:00 AM 51 °F 47 °F 80% 29.95 in 16 mi North 10.4 mph - -   Haze
3:00 AM 51.8 °F 46.4 °F 82% 29.95 in - North 10.4 mph - N/A   Clear
3:30 AM 55.4 °F 46.4 °F 72% 29.92 in - North 15.0 mph - N/A   Clear
4:00 AM 55.4 °F 46.4 °F 72% 29.92 in - North 17.3 mph - N/A   Clear
4:30 AM 57.2 °F 44.6 °F 63% 29.92 in - North 17.3 mph - N/A   Clear
5:00 AM 60 °F 44 °F 45% 29.93 in - North 16.1 mph - -  
5:00 AM 60.8 °F 44.6 °F 55% 29.92 in - North 16.1 mph - N/A   Clear
5:30 AM 59.0 °F 44.6 °F 59% 29.92 in - North 18.4 mph - N/A   Clear
6:00 AM 60 °F 44 °F 45% 29.92 in 25 mi North 18.4 mph - -   Partly Cloudy
6:00 AM 60.8 °F 44.6 °F 55% 29.92 in - North 18.4 mph - N/A   Clear
6:30 AM 62.6 °F 44.6 °F 52% 29.92 in - North 19.6 mph - N/A   Clear
7:00 AM 64.4 °F 42.8 °F 45% 29.92 in - North 21.9 mph - N/A   Clear
7:30 AM 64.4 °F 44.6 °F 49% 29.92 in - North 23.0 mph - N/A   Clear
8:00 AM 67 °F 45 °F 34% 29.94 in - North 19.6 mph - -  
8:00 AM 68.0 °F 44.6 °F 43% 29.92 in - North 19.6 mph - N/A   Clear
8:30 AM 69.8 °F 46.4 °F 43% 29.95 in - North 21.9 mph - N/A   Clear
9:00 AM 72 °F 45 °F 27% 29.94 in 19 mi North 23.0 mph - -   Partly Cloudy
9:00 AM 71.6 °F 44.6 °F 38% 29.92 in - North 23.0 mph - N/A   Clear
9:30 AM 73.4 °F 46.4 °F 38% 29.92 in - North 23.0 mph - N/A   Clear
10:00 AM 75.2 °F 46.4 °F 36% 29.95 in - North 21.9 mph - N/A   Clear
10:30 AM 77.0 °F 46.4 °F 34% 29.95 in - North 20.7 mph - N/A   Clear
11:00 AM 79 °F 48 °F 23% 29.95 in - North 19.6 mph - -  
11:00 AM 78.8 °F 48.2 °F 34% 29.95 in - North 19.6 mph - N/A   Clear
11:30 AM 82.4 °F 46.4 °F 28% 29.92 in - North 17.3 mph - N/A   Clear
12:00 PM 85 °F 30 °F 7% 29.94 in 19 mi NNW 15.0 mph - -   Partly Cloudy
12:00 PM 84.2 °F 30.2 °F 14% 29.92 in - NNW 15.0 mph - N/A   Clear
12:30 PM 84.2 °F 32.0 °F 15% 29.92 in - West 16.1 mph - N/A   Clear
1:00 PM 84.2 °F 33.8 °F 16% 29.92 in - NNW 11.5 mph - N/A   Clear
1:30 PM 86.0 °F 30.2 °F 13% 29.92 in - NW 15.0 mph - N/A   Clear
2:00 PM 85 °F 35 °F 9% 29.91 in - West 8.1 mph - -  
2:00 PM 86.0 °F 35.6 °F 17% 29.92 in - West 8.1 mph 19.6 mph N/A   Clear
2:30 PM 86.0 °F 30.2 °F 13% 29.89 in - West 6.9 mph - N/A   Clear
3:00 PM 88 °F 28 °F 5% 29.89 in 16 mi NW 17.3 mph - -   Smoke
3:00 PM 87.8 °F 28.4 °F 12% 29.89 in - NW 17.3 mph - N/A   Clear
3:30 PM 86.0 °F 24.8 °F 11% 29.89 in - WSW 12.7 mph - N/A   Clear
4:00 PM 86.0 °F 26.6 °F 12% 29.86 in - West 9.2 mph - N/A   Clear
4:30 PM 86.0 °F 30.2 °F 13% 29.86 in - SW 10.4 mph - N/A   Clear
5:00 PM 87 °F 28 °F 5% 29.87 in - West 15.0 mph - -  
5:00 PM 87.8 °F 28.4 °F 12% 29.86 in - West 15.0 mph - N/A   Clear
5:30 PM 87.8 °F 26.6 °F 11% 29.86 in - West 13.8 mph - N/A   Clear
6:00 PM 86.0 °F 23.0 °F 10% 29.86 in - WSW 13.8 mph - N/A   Clear
6:30 PM 84.2 °F 21.2 °F 10% 29.86 in - WSW 12.7 mph - N/A   Clear
7:00 PM 82.4 °F 26.6 °F 13% 29.89 in - WSW 11.5 mph - N/A   Clear
7:30 PM 77.0 °F 37.4 °F 24% 29.89 in - South 10.4 mph - N/A   Clear
8:00 PM 71 °F 42 °F 24% 29.91 in - South 6.9 mph - -  
8:00 PM 71.6 °F 42.8 °F 35% 29.89 in - South 6.9 mph - N/A   Clear
8:30 PM 77.0 °F 32.0 °F 19% 29.92 in - ESE 10.4 mph - N/A   Clear
9:00 PM 72 °F 37 °F 18% 29.92 in 19 mi ENE 6.9 mph - -   Partly Cloudy
9:00 PM 73.4 °F 37.4 °F 27% 29.92 in - ENE 6.9 mph - N/A   Clear
9:30 PM 69.8 °F 39.2 °F 33% 29.92 in - NE 8.1 mph - N/A   Clear
10:00 PM 68.0 °F 39.2 °F 35% 29.92 in - NNE 8.1 mph - N/A   Clear
10:30 PM 68.0 °F 39.2 °F 35% 29.92 in - NNE 9.2 mph - N/A   Clear
11:00 PM 70 °F 38 °F 20% 29.93 in - North 11.5 mph - -  
11:00 PM 69.8 °F 37.4 °F 31% 29.92 in - North 11.5 mph - N/A   Clear
11:30 PM 68.0 °F 41.0 °F 37% 29.92 in - North 11.5 mph - N/A   Clear